• In Schweiz
  • Länderverzeichnis
  • Für 7 Tage
  • Wassertemperatur
  • Satellitenkarten
  • Wetterkarte
  • Widgets
  • user-avatar
    Anmelden

    Stündliche Wetter Okolnik

    Heute, 22 September, Samstag

    Zeit Temperatur Niederschläge Wind Luftdruck Luftfeuchtigkeit
    00:00 +19°C° 0 mm 5 m/S 742 mmHg 69%
    01:00 +19°C° 0 mm 5 m/S 742 mmHg 68%
    02:00 +18°C° 0 mm 4 m/S 741 mmHg 70%
    03:00 +18°C° 0 mm 4 m/S 741 mmHg 71%
    04:00 +18°C° 0 mm 4 m/S 741 mmHg 71%
    05:00 +17°C° 0 mm 5 m/S 742 mmHg 72%
    06:00 +16°C° 0.4 mm 5 m/S 742 mmHg 76%
    07:00 +15°C° 0.4 mm 6 m/S 743 mmHg 79%
    08:00 +14°C° 0.4 mm 6 m/S 744 mmHg 83%
    09:00 +14°C° 0.3 mm 6 m/S 744 mmHg 81%
    10:00 +13°C° 0.3 mm 5 m/S 745 mmHg 79%
    11:00 +13°C° 0.3 mm 5 m/S 746 mmHg 76%
    12:00 +13°C° 0.1 mm 4 m/S 746 mmHg 73%
    13:00 +14°C° 0.1 mm 4 m/S 746 mmHg 69%
    14:00 +14°C° 0.1 mm 4 m/S 746 mmHg 66%
    15:00 +14°C° 0.1 mm 4 m/S 746 mmHg 65%
    16:00 +14°C° 0.1 mm 4 m/S 746 mmHg 65%
    17:00 +14°C° 0.1 mm 4 m/S 746 mmHg 65%
    18:00 +13°C° 0.1 mm 4 m/S 746 mmHg 70%
    19:00 +11°C° 0.1 mm 3 m/S 746 mmHg 75%
    20:00 +10°C° 0.1 mm 3 m/S 746 mmHg 79%
    21:00 +10°C° 0 mm 3 m/S 746 mmHg 80%
    22:00 +9°C° 0 mm 3 m/S 746 mmHg 81%
    23:00 +9°C° 0 mm 3 m/S 746 mmHg 82%

    Morgen, 23 September, Sonntag

    Zeit Temperatur Niederschläge Wind Luftdruck Luftfeuchtigkeit
    00:00 +9°C° 0 mm 3 m/S 746 mmHg 83%
    01:00 +9°C° 0 mm 3 m/S 746 mmHg 83%
    02:00 +8°C° 0 mm 3 m/S 746 mmHg 84%
    03:00 +8°C° 0 mm 3 m/S 746 mmHg 85%
    04:00 +8°C° 0 mm 3 m/S 746 mmHg 85%
    05:00 +8°C° 0 mm 3 m/S 746 mmHg 86%
    06:00 +8°C° 0 mm 4 m/S 746 mmHg 83%
    07:00 +8°C° 0 mm 4 m/S 745 mmHg 80%
    08:00 +10°C° 0 mm 4 m/S 745 mmHg 77%
    09:00 +12°C° 0.1 mm 5 m/S 745 mmHg 70%
    10:00 +13°C° 0.1 mm 5 m/S 745 mmHg 64%
    11:00 +15°C° 0.1 mm 6 m/S 745 mmHg 57%
    12:00 +15°C° 0.3 mm 6 m/S 745 mmHg 59%
    13:00 +14°C° 0.3 mm 6 m/S 745 mmHg 61%
    14:00 +14°C° 0.3 mm 6 m/S 745 mmHg 63%
    15:00 +14°C° 0.1 mm 5 m/S 744 mmHg 65%
    16:00 +14°C° 0.1 mm 4 m/S 744 mmHg 66%
    17:00 +14°C° 0.1 mm 4 m/S 744 mmHg 67%
    18:00 +13°C° 0 mm 3 m/S 743 mmHg 72%
    19:00 +12°C° 0 mm 3 m/S 743 mmHg 77%
    20:00 +12°C° 0 mm 2 m/S 743 mmHg 82%
    21:00 +12°C° 0.5 mm 2 m/S 742 mmHg 85%
    22:00 +10°C° 0.5 mm 2 m/S 741 mmHg 88%
    23:00 +10°C° 0.5 mm 2 m/S 741 mmHg 90%

    übermorgen, 24 September, Montag

    Zeit Temperatur Niederschläge Wind Luftdruck Luftfeuchtigkeit
    00:00 +10°C° 3.1 mm 2 m/S 739 mmHg 92%
    01:00 +10°C° 3.1 mm 3 m/S 738 mmHg 94%
    02:00 +10°C° 3.1 mm 4 m/S 736 mmHg 96%
    03:00 +10°C° 1.7 mm 4 m/S 735 mmHg 95%
    04:00 +10°C° 1.7 mm 4 m/S 734 mmHg 95%
    05:00 +10°C° 1.7 mm 4 m/S 733 mmHg 94%
    06:00 +9°C° 2.7 mm 6 m/S 733 mmHg 93%
    07:00 +9°C° 2.7 mm 8 m/S 733 mmHg 92%
    08:00 +7°C° 2.7 mm 9 m/S 733 mmHg 91%
    09:00 +7°C° 0.8 mm 9 m/S 734 mmHg 88%
    10:00 +7°C° 0.8 mm 9 m/S 735 mmHg 85%
    11:00 +8°C° 0.8 mm 9 m/S 737 mmHg 81%
    12:00 +10°C° 0.3 mm 9 m/S 738 mmHg 77%
    13:00 +11°C° 0.3 mm 9 m/S 739 mmHg 72%
    14:00 +12°C° 0.3 mm 9 m/S 740 mmHg 68%
    15:00 +11°C° 0.2 mm 8 m/S 741 mmHg 68%
    16:00 +11°C° 0.2 mm 7 m/S 741 mmHg 68%
    17:00 +11°C° 0.2 mm 6 m/S 742 mmHg 68%
    18:00 +10°C° 0.2 mm 6 m/S 742 mmHg 72%
    19:00 +9°C° 0.2 mm 6 m/S 743 mmHg 76%
    20:00 +8°C° 0.2 mm 6 m/S 743 mmHg 80%
    21:00 +6°C° 0.6 mm 7 m/S 744 mmHg 82%
    22:00 +6°C° 0.6 mm 7 m/S 745 mmHg 84%
    23:00 +6°C° 0.6 mm 7 m/S 746 mmHg 86%

    25 September, Dienstag

    Zeit Temperatur Niederschläge Wind Luftdruck Luftfeuchtigkeit
    00:00 +5°C° 0.1 mm 7 m/S 747 mmHg 86%
    01:00 +4°C° 0.1 mm 6 m/S 747 mmHg 85%
    02:00 +4°C° 0.1 mm 6 m/S 748 mmHg 85%
    03:00 +3°C° 0 mm 6 m/S 749 mmHg 85%
    04:00 +3°C° 0 mm 6 m/S 750 mmHg 84%
    05:00 +3°C° 0 mm 5 m/S 750 mmHg 84%
    06:00 +3°C° 0 mm 6 m/S 751 mmHg 82%
    07:00 +4°C° 0 mm 6 m/S 751 mmHg 80%
    08:00 +4°C° 0 mm 6 m/S 752 mmHg 78%
    09:00 +5°C° 0 mm 7 m/S 752 mmHg 71%
    10:00 +8°C° 0 mm 7 m/S 753 mmHg 65%
    11:00 +9°C° 0 mm 8 m/S 753 mmHg 59%
    12:00 +10°C° 0.1 mm 8 m/S 753 mmHg 55%
    13:00 +10°C° 0.1 mm 8 m/S 754 mmHg 52%
    14:00 +11°C° 0.1 mm 8 m/S 754 mmHg 48%
    15:00 +10°C° 0.1 mm 7 m/S 754 mmHg 52%
    16:00 +9°C° 0.1 mm 7 m/S 755 mmHg 55%
    17:00 +9°C° 0.1 mm 6 m/S 755 mmHg 59%
    18:00 +8°C° 0 mm 5 m/S 756 mmHg 61%
    19:00 +7°C° 0 mm 5 m/S 756 mmHg 64%
    20:00 +6°C° 0 mm 4 m/S 757 mmHg 67%
    21:00 +6°C° 0 mm 4 m/S 757 mmHg 67%
    22:00 +5°C° 0 mm 3 m/S 758 mmHg 68%
    23:00 +5°C° 0 mm 3 m/S 758 mmHg 68%

    26 September, Mittwoch

    Zeit Temperatur Niederschläge Wind Luftdruck Luftfeuchtigkeit
    00:00 +5°C° 0 mm 4 m/S 758 mmHg 69%
    01:00 +5°C° 0 mm 4 m/S 758 mmHg 69%
    02:00 +5°C° 0 mm 4 m/S 758 mmHg 70%
    03:00 +5°C° 0 mm 4 m/S 758 mmHg 71%
    04:00 +5°C° 0 mm 5 m/S 758 mmHg 72%
    05:00 +5°C° 0 mm 5 m/S 757 mmHg 72%
    06:00 +5°C° 0 mm 5 m/S 757 mmHg 72%
    07:00 +5°C° 0 mm 6 m/S 757 mmHg 72%
    08:00 +7°C° 0 mm 6 m/S 757 mmHg 72%
    09:00 +8°C° 0 mm 6 m/S 757 mmHg 68%
    10:00 +9°C° 0 mm 7 m/S 757 mmHg 64%
    11:00 +10°C° 0 mm 7 m/S 756 mmHg 60%
    12:00 +10°C° 0 mm 7 m/S 756 mmHg 58%
    13:00 +10°C° 0 mm 7 m/S 755 mmHg 57%
    14:00 +11°C° 0 mm 7 m/S 755 mmHg 55%
    15:00 +10°C° 0 mm 7 m/S 754 mmHg 57%
    16:00 +10°C° 0 mm 6 m/S 754 mmHg 58%
    17:00 +9°C° 0 mm 6 m/S 753 mmHg 60%
    18:00 +9°C° 0.1 mm 6 m/S 753 mmHg 61%
    19:00 +9°C° 0.1 mm 6 m/S 753 mmHg 61%
    20:00 +9°C° 0.1 mm 6 m/S 752 mmHg 62%
    21:00 +9°C° 0.2 mm 6 m/S 752 mmHg 66%
    22:00 +8°C° 0.2 mm 6 m/S 752 mmHg 70%
    23:00 +8°C° 0.2 mm 6 m/S 751 mmHg 73%

    27 September, Donnerstag

    Zeit Temperatur Niederschläge Wind Luftdruck Luftfeuchtigkeit
    00:00 +8°C° 0.1 mm 6 m/S 751 mmHg 71%
    01:00 +9°C° 0.1 mm 6 m/S 750 mmHg 69%
    02:00 +9°C° 0.1 mm 6 m/S 750 mmHg 66%
    03:00 +9°C° 0 mm 6 m/S 749 mmHg 65%
    04:00 +9°C° 0 mm 6 m/S 749 mmHg 64%
    05:00 +9°C° 0 mm 6 m/S 748 mmHg 63%
    06:00 +9°C° 0.1 mm 7 m/S 748 mmHg 64%
    07:00 +9°C° 0.1 mm 7 m/S 748 mmHg 65%
    08:00 +9°C° 0.1 mm 7 m/S 747 mmHg 66%
    09:00 +10°C° 0 mm 7 m/S 747 mmHg 64%
    10:00 +11°C° 0 mm 8 m/S 747 mmHg 61%
    11:00 +12°C° 0 mm 8 m/S 747 mmHg 59%
    12:00 +12°C° 0 mm 8 m/S 746 mmHg 61%
    13:00 +13°C° 0 mm 8 m/S 746 mmHg 62%
    14:00 +13°C° 0 mm 8 m/S 745 mmHg 64%
    15:00 +12°C° 0.6 mm 7 m/S 745 mmHg 68%
    16:00 +13°C° 0.6 mm 6 m/S 744 mmHg 73%
    17:00 +11°C° 0.6 mm 6 m/S 744 mmHg 78%
    18:00 +11°C° 0.1 mm 6 m/S 744 mmHg 76%
    19:00 +13°C° 0.1 mm 6 m/S 743 mmHg 74%
    20:00 +13°C° 0.1 mm 6 m/S 743 mmHg 72%
    21:00 +13°C° 0 mm 6 m/S 742 mmHg 69%
    22:00 +13°C° 0 mm 6 m/S 742 mmHg 67%
    23:00 +11°C° 0 mm 6 m/S 742 mmHg 64%
    Mehr zeigen